QTR49Q OTHH-LGAV

Flight info

Callsign QTR49Q
Flight time N/A
Altitude 28000
Route DATRI L564 BAT/N0485F290 L564 MIGMA/N0471F280 M628 AMBAG/N0484F400 M321 KSA T503 OVANO L768 FIRAS R655 KTN R785 NIKAS M978 LCA M601 VADUS DCT EVENO UM601 RDS UL995 VARIX
Aircraft A359/H-SDE2E3GHIJ3J4J5LM1ORWXY/LB1D1

Departure

Time 2026-05-07 09:58
Airport Hamad International Airport (OTHH)

Arrival

Time N/A
Airport Athens Eleftherios Venizelos International Airport (LGAV)
Time Latitude Longitude Altitude Speed Heading
2026-05-07 09:31 25.26468 51.61310 36 ft 0 kts 248°
2026-05-07 09:46 25.26474 51.61327 36 ft 4 kts 248°
2026-05-07 09:47 25.26484 51.61355 34 ft 3 kts 248°
2026-05-07 09:47 25.26493 51.61376 32 ft 4 kts 224°
2026-05-07 09:47 25.26515 51.61390 34 ft 4 kts 185°
2026-05-07 09:47 25.26541 51.61387 35 ft 4 kts 159°
2026-05-07 09:48 25.26565 51.61377 34 ft 4 kts 158°
2026-05-07 09:48 25.26573 51.61373 34 ft 0 kts 158°
2026-05-07 09:50 25.26568 51.61375 34 ft 4 kts 158°
2026-05-07 09:51 25.26517 51.61398 32 ft 12 kts 158°
2026-05-07 09:51 25.26421 51.61441 36 ft 16 kts 153°
2026-05-07 09:51 25.26405 51.61544 36 ft 15 kts 66°
2026-05-07 09:51 25.26446 51.61653 36 ft 16 kts 67°
2026-05-07 09:52 25.26490 51.61773 36 ft 17 kts 68°
2026-05-07 09:52 25.26531 51.61891 36 ft 14 kts 78°
2026-05-07 09:52 25.26475 51.61957 36 ft 13 kts 155°
2026-05-07 09:52 25.26388 51.61997 36 ft 15 kts 158°
2026-05-07 09:53 25.26320 51.62027 36 ft 17 kts 158°
2026-05-07 09:53 25.26206 51.62077 36 ft 18 kts 158°
2026-05-07 09:53 25.26083 51.62132 36 ft 20 kts 158°
2026-05-07 09:53 25.25950 51.62190 36 ft 21 kts 158°
2026-05-07 09:54 25.25809 51.62252 36 ft 21 kts 158°
2026-05-07 09:54 25.25669 51.62313 36 ft 22 kts 158°
2026-05-07 09:54 25.25551 51.62365 36 ft 12 kts 159°
2026-05-07 09:54 25.25484 51.62405 36 ft 9 kts 126°
2026-05-07 09:55 25.25484 51.62471 35 ft 10 kts 72°
2026-05-07 09:55 25.25507 51.62535 34 ft 4 kts 68°
2026-05-07 09:55 25.25508 51.62536 34 ft 0 kts 68°
2026-05-07 09:56 25.25508 51.62537 34 ft 1 kts 68°
2026-05-07 09:57 25.25521 51.62570 34 ft 9 kts 63°
2026-05-07 09:57 25.25579 51.62626 33 ft 13 kts 31°
2026-05-07 09:57 25.25663 51.62626 33 ft 13 kts 340°
2026-05-07 09:57 25.25820 51.62558 33 ft 50 kts 338°
2026-05-07 09:58 25.26362 51.62319 33 ft 116 kts 338°
2026-05-07 09:58 25.27290 51.61910 36 ft 170 kts 338°
2026-05-07 09:58 25.28351 51.61417 822 ft 157 kts 336°
2026-05-07 09:58 25.29368 51.60941 1414 ft 163 kts 337°
2026-05-07 09:59 25.30431 51.60476 1910 ft 166 kts 338°
2026-05-07 09:59 25.31558 51.59989 2191 ft 184 kts 338°
2026-05-07 09:59 25.32812 51.59433 2420 ft 205 kts 338°
2026-05-07 09:59 25.34187 51.58800 2694 ft 221 kts 338°
2026-05-07 10:00 25.35663 51.58235 3103 ft 229 kts 353°
2026-05-07 10:00 25.37266 51.58454 3416 ft 242 kts 24°
2026-05-07 10:00 25.38635 51.59609 3734 ft 258 kts 52°
2026-05-07 10:00 25.39538 51.61347 4172 ft 264 kts 66°
2026-05-07 10:01 25.40271 51.63222 4782 ft 267 kts 67°
2026-05-07 10:01 25.40765 51.65200 5386 ft 270 kts 82°
2026-05-07 10:01 25.40666 51.67278 5994 ft 275 kts 103°
2026-05-07 10:01 25.39775 51.69168 6559 ft 283 kts 131°
2026-05-07 10:02 25.38174 51.70382 7175 ft 288 kts 159°
2026-05-07 10:02 25.36186 51.70630 7819 ft 292 kts 184°
2026-05-07 10:02 25.34153 51.70357 8510 ft 296 kts 189°
2026-05-07 10:02 25.32137 51.69836 9224 ft 299 kts 195°
2026-05-07 10:03 25.30163 51.69069 9959 ft 302 kts 202°
2026-05-07 10:03 25.28235 51.68061 10451 ft 314 kts 208°
2026-05-07 10:03 25.26188 51.67049 10729 ft 331 kts 196°
2026-05-07 10:03 25.23891 51.66418 11038 ft 347 kts 191°
2026-05-07 10:04 25.21492 51.65869 11444 ft 357 kts 191°
2026-05-07 10:04 25.19029 51.65344 11985 ft 363 kts 189°
2026-05-07 10:04 25.16527 51.64853 12596 ft 366 kts 189°
2026-05-07 10:04 25.14009 51.64388 13269 ft 368 kts 188°
2026-05-07 10:05 25.11475 51.63937 13876 ft 370 kts 188°
2026-05-07 10:05 25.08921 51.63492 14479 ft 372 kts 188°
2026-05-07 10:05 25.06358 51.63047 15070 ft 374 kts 188°
2026-05-07 10:05 25.03783 51.62599 15690 ft 376 kts 188°
2026-05-07 10:06 25.01196 51.62147 16301 ft 377 kts 188°
2026-05-07 10:06 24.98596 51.61692 16923 ft 379 kts 188°
2026-05-07 10:06 24.95986 51.61234 17533 ft 381 kts 188°
2026-05-07 10:06 24.93356 51.60773 18148 ft 384 kts 188°
2026-05-07 10:07 24.90697 51.60306 18607 ft 389 kts 188°
2026-05-07 10:07 24.88010 51.59834 19108 ft 393 kts 189°
2026-05-07 10:07 24.85303 51.59359 19639 ft 395 kts 189°
2026-05-07 10:07 24.82606 51.58886 20175 ft 398 kts 189°
2026-05-07 10:08 24.79858 51.58404 20705 ft 401 kts 189°
2026-05-07 10:08 24.77085 51.57918 21228 ft 404 kts 189°
2026-05-07 10:08 24.74294 51.57430 21739 ft 407 kts 190°
2026-05-07 10:08 24.71481 51.56937 22192 ft 412 kts 190°
2026-05-07 10:09 24.68646 51.56412 22702 ft 415 kts 192°
2026-05-07 10:09 24.65808 51.55772 23198 ft 418 kts 193°
2026-05-07 10:09 24.62956 51.55069 23641 ft 421 kts 194°
2026-05-07 10:09 24.60094 51.54347 24103 ft 423 kts 194°
2026-05-07 10:10 24.57223 51.53630 24589 ft 424 kts 194°
2026-05-07 10:10 24.54339 51.52923 25085 ft 425 kts 194°
2026-05-07 10:10 24.51443 51.52226 25571 ft 427 kts 194°
2026-05-07 10:10 24.48531 51.51533 26058 ft 429 kts 194°
2026-05-07 10:11 24.45609 51.50844 26535 ft 431 kts 194°
2026-05-07 10:11 24.42669 51.50152 27016 ft 432 kts 195°
2026-05-07 10:11 24.39721 51.49459 27443 ft 435 kts 195°
2026-05-07 10:11 24.36747 51.48760 27848 ft 439 kts 195°
2026-05-07 10:12 24.33756 51.48057 28307 ft 441 kts 195°
2026-05-07 10:12 24.30751 51.47351 28778 ft 442 kts 195°
2026-05-07 10:12 24.27741 51.46644 29226 ft 444 kts 195°
2026-05-07 10:12 24.24748 51.45941 29658 ft 446 kts 195°
2026-05-07 10:13 24.21666 51.45395 30034 ft 451 kts 189°
2026-05-07 10:13 24.18511 51.45225 30334 ft 457 kts 186°
2026-05-07 10:13 24.15318 51.45168 30625 ft 461 kts 185°
2026-05-07 10:13 24.12095 51.45163 30894 ft 465 kts 184°
2026-05-07 10:14 24.08847 51.45184 31187 ft 468 kts 184°
2026-05-07 10:14 24.05586 51.45213 31492 ft 470 kts 184°
2026-05-07 10:14 24.02296 51.45240 31779 ft 473 kts 184°
2026-05-07 10:14 23.98993 51.45262 32058 ft 475 kts 184°
2026-05-07 10:15 23.95681 51.45279 32331 ft 478 kts 184°
2026-05-07 10:15 23.92343 51.45293 32594 ft 480 kts 185°
2026-05-07 10:15 23.88989 51.45304 32839 ft 483 kts 184°
2026-05-07 10:15 23.85616 51.45315 33038 ft 486 kts 184°
2026-05-07 10:16 23.82268 51.45325 33287 ft 488 kts 184°
2026-05-07 10:16 23.78817 51.45336 33542 ft 491 kts 184°
2026-05-07 10:16 23.75443 51.45348 33764 ft 493 kts 184°
2026-05-07 10:16 23.72003 51.45359 33974 ft 494 kts 184°
2026-05-07 10:17 23.68568 51.45372 34285 ft 493 kts 184°
2026-05-07 10:17 23.65140 51.45385 34606 ft 492 kts 184°
2026-05-07 10:17 23.61721 51.45398 34888 ft 491 kts 184°
2026-05-07 10:17 23.58301 51.45410 35175 ft 491 kts 184°
2026-05-07 10:18 23.54887 51.45422 35485 ft 489 kts 184°
2026-05-07 10:18 23.51486 51.45434 35786 ft 488 kts 184°
2026-05-07 10:18 23.48092 51.45446 36080 ft 487 kts 184°
2026-05-07 10:18 23.44703 51.45468 36347 ft 487 kts 184°
2026-05-07 10:19 23.41319 51.45516 36620 ft 486 kts 183°
2026-05-07 10:19 23.37945 51.45462 36859 ft 484 kts 188°
2026-05-07 10:19 23.34621 51.44983 37068 ft 480 kts 195°
2026-05-07 10:19 23.31427 51.44002 37311 ft 475 kts 204°
2026-05-07 10:20 23.28477 51.42537 37559 ft 470 kts 212°
2026-05-07 10:20 23.25765 51.40580 37784 ft 466 kts 220°
2026-05-07 10:20 23.23392 51.38204 38006 ft 463 kts 229°
2026-05-07 10:20 23.21396 51.35464 38221 ft 461 kts 237°
2026-05-07 10:21 23.19818 51.32430 38427 ft 460 kts 246°
2026-05-07 10:21 23.18695 51.29192 38658 ft 458 kts 253°
2026-05-07 10:21 23.18028 51.25810 38816 ft 458 kts 261°
2026-05-07 10:21 23.17727 51.22359 38975 ft 459 kts 265°
2026-05-07 10:22 23.17628 51.18890 39120 ft 459 kts 268°
2026-05-07 10:22 23.17620 51.15420 39276 ft 459 kts 269°
2026-05-07 10:22 23.17636 51.11951 39420 ft 459 kts 268°
2026-05-07 10:22 23.17642 51.08482 39572 ft 459 kts 268°
2026-05-07 10:23 23.17627 51.05022 39710 ft 458 kts 268°
2026-05-07 10:23 23.17547 50.98090 39813 ft 458 kts 267°
2026-05-07 10:24 23.17434 50.91172 39815 ft 458 kts 267°
2026-05-07 10:24 23.17313 50.84259 39815 ft 457 kts 267°
2026-05-07 10:25 23.17193 50.77349 39818 ft 457 kts 267°
2026-05-07 10:25 23.17072 50.70480 39818 ft 457 kts 267°
2026-05-07 10:26 23.16948 50.63572 39822 ft 456 kts 267°
2026-05-07 10:26 23.16823 50.56706 39817 ft 454 kts 267°
2026-05-07 10:27 23.16693 50.49850 39822 ft 453 kts 267°
2026-05-07 10:27 23.16561 50.43003 39822 ft 453 kts 267°
2026-05-07 10:28 23.16425 50.36150 39817 ft 454 kts 267°
2026-05-07 10:28 23.16287 50.29297 39821 ft 454 kts 267°
2026-05-07 10:29 23.16146 50.22442 39822 ft 454 kts 266°
2026-05-07 10:29 23.16003 50.15586 39817 ft 454 kts 266°
2026-05-07 10:30 23.15781 50.05303 39824 ft 454 kts 266°
2026-05-07 10:30 23.15630 49.98487 39822 ft 454 kts 266°
2026-05-07 10:31 23.15476 49.91637 39825 ft 453 kts 266°
2026-05-07 10:31 23.15319 49.84791 39819 ft 453 kts 266°
2026-05-07 10:32 23.15159 49.77948 39830 ft 453 kts 266°
2026-05-07 10:32 23.14996 49.71120 39817 ft 451 kts 266°
2026-05-07 10:33 23.14832 49.64318 39818 ft 450 kts 266°
2026-05-07 10:33 23.14664 49.57524 39815 ft 450 kts 266°
2026-05-07 10:34 23.14493 49.50731 39816 ft 450 kts 266°
2026-05-07 10:34 23.14320 49.43937 39819 ft 450 kts 266°
2026-05-07 10:35 23.14145 49.37186 39817 ft 450 kts 266°
2026-05-07 10:35 23.13965 49.30397 39824 ft 450 kts 266°
2026-05-07 10:36 23.13783 49.23607 39817 ft 449 kts 266°
2026-05-07 10:36 23.13598 49.16814 39821 ft 450 kts 266°
2026-05-07 10:37 23.13410 49.10025 39817 ft 449 kts 266°
2026-05-07 10:37 23.13220 49.03236 39823 ft 449 kts 266°
2026-05-07 10:38 23.13026 48.96443 39824 ft 449 kts 266°
2026-05-07 10:38 23.12829 48.89660 39832 ft 449 kts 266°
2026-05-07 10:39 23.12631 48.82896 39823 ft 447 kts 266°
2026-05-07 10:39 23.12431 48.76187 39826 ft 447 kts 266°
2026-05-07 10:40 23.12227 48.69439 39829 ft 447 kts 266°
2026-05-07 10:40 23.12020 48.62692 39835 ft 447 kts 265°
2026-05-07 10:41 23.11810 48.55957 39834 ft 446 kts 265°
2026-05-07 10:41 23.11598 48.49226 39834 ft 446 kts 265°
2026-05-07 10:42 23.11418 48.43589 39835 ft 446 kts 265°
2026-05-07 10:42 23.11201 48.36861 39834 ft 446 kts 265°
2026-05-07 10:43 23.10981 48.30136 39834 ft 446 kts 265°
2026-05-07 10:43 23.10759 48.23451 39836 ft 446 kts 265°
2026-05-07 10:44 23.10534 48.16730 39840 ft 445 kts 265°
2026-05-07 10:44 23.10305 48.10017 39840 ft 445 kts 265°
2026-05-07 10:45 23.10075 48.03308 39846 ft 444 kts 265°
2026-05-07 10:45 23.09842 47.96621 39851 ft 442 kts 265°
2026-05-07 10:46 23.09622 47.89949 39841 ft 443 kts 267°
2026-05-07 10:46 23.10339 47.83286 39852 ft 449 kts 281°
2026-05-07 10:47 23.12836 47.77007 39862 ft 461 kts 297°
2026-05-07 10:47 23.17151 47.71750 39868 ft 475 kts 314°
2026-05-07 10:48 23.22605 47.67577 39879 ft 483 kts 322°
2026-05-07 10:48 23.28374 47.63809 39877 ft 484 kts 323°
2026-05-07 10:49 23.34145 47.60040 39889 ft 483 kts 322°
2026-05-07 10:49 23.39880 47.56197 39887 ft 484 kts 322°
2026-05-07 10:50 23.45553 47.52348 39896 ft 483 kts 321°
2026-05-07 10:50 23.51257 47.48475 39903 ft 483 kts 321°
2026-05-07 10:51 23.56963 47.44593 39909 ft 483 kts 321°
2026-05-07 10:51 23.62666 47.40712 39912 ft 483 kts 321°
2026-05-07 10:52 23.68370 47.36827 39917 ft 483 kts 321°
2026-05-07 10:52 23.74072 47.32941 39920 ft 483 kts 321°
2026-05-07 10:53 23.79774 47.29051 39931 ft 483 kts 321°
2026-05-07 10:53 23.85475 47.25158 39925 ft 483 kts 321°
2026-05-07 10:54 23.91177 47.21260 39929 ft 483 kts 321°
2026-05-07 10:54 23.96871 47.17363 39930 ft 483 kts 321°
2026-05-07 10:55 24.02566 47.13461 39941 ft 484 kts 321°
2026-05-07 10:55 24.08272 47.09547 39942 ft 484 kts 321°
2026-05-07 10:56 24.14278 47.06096 39938 ft 492 kts 329°
2026-05-07 10:56 24.20561 47.03108 39943 ft 493 kts 330°
2026-05-07 10:57 24.26894 47.00182 39950 ft 494 kts 330°
2026-05-07 10:57 24.33221 46.97256 39970 ft 494 kts 329°
2026-05-07 10:58 24.39544 46.94316 39969 ft 493 kts 329°
2026-05-07 10:58 24.45848 46.91375 39964 ft 493 kts 329°
2026-05-07 10:59 24.52162 46.88425 39966 ft 493 kts 329°
2026-05-07 10:59 24.58430 46.85493 39977 ft 493 kts 329°
2026-05-07 11:00 24.64749 46.82534 39973 ft 494 kts 329°
2026-05-07 11:00 24.71073 46.79570 39982 ft 494 kts 329°
2026-05-07 11:01 24.77405 46.76600 39999 ft 494 kts 329°
2026-05-07 11:01 24.83727 46.73632 39992 ft 495 kts 329°
2026-05-07 11:02 24.90063 46.70653 39993 ft 495 kts 329°
2026-05-07 11:02 24.96322 46.67541 39993 ft 488 kts 322°
2026-05-07 11:03 24.99134 46.65525 40003 ft 477 kts 314°
2026-05-07 11:03 25.01665 46.63195 39996 ft 473 kts 310°
2026-05-07 11:03 25.06530 46.58331 39988 ft 471 kts 309°
2026-05-07 11:04 25.11328 46.53383 39983 ft 472 kts 308°
2026-05-07 11:04 25.16130 46.48435 39966 ft 472 kts 308°
2026-05-07 11:05 25.20943 46.43499 39975 ft 472 kts 308°
2026-05-07 11:05 25.25758 46.38565 39972 ft 472 kts 308°
2026-05-07 11:06 25.30573 46.33627 39970 ft 472 kts 308°
2026-05-07 11:06 25.35387 46.28683 39960 ft 472 kts 308°
2026-05-07 11:07 25.40196 46.23738 39955 ft 472 kts 308°
2026-05-07 11:07 25.44976 46.18817 39955 ft 472 kts 308°
2026-05-07 11:08 25.49784 46.13862 39958 ft 471 kts 308°
2026-05-07 11:08 25.54580 46.08913 39949 ft 471 kts 308°
2026-05-07 11:09 25.59378 46.03955 39952 ft 471 kts 308°
2026-05-07 11:09 25.64178 45.98997 39963 ft 471 kts 308°
2026-05-07 11:10 25.68963 45.94044 39947 ft 470 kts 308°
2026-05-07 11:10 25.73707 45.89120 39957 ft 470 kts 307°
2026-05-07 11:11 25.78482 45.84161 39958 ft 470 kts 307°
2026-05-07 11:11 25.83257 45.79200 39953 ft 470 kts 307°
2026-05-07 11:12 25.88038 45.74230 39955 ft 470 kts 308°
2026-05-07 11:12 25.92806 45.69267 39952 ft 470 kts 307°
2026-05-07 11:13 25.97574 45.64289 39956 ft 470 kts 307°
2026-05-07 11:13 26.02350 45.59297 39958 ft 471 kts 307°
2026-05-07 11:14 26.07126 45.54303 39958 ft 471 kts 307°
2026-05-07 11:14 26.11890 45.49317 39962 ft 471 kts 307°
2026-05-07 11:15 26.16665 45.44313 39963 ft 471 kts 307°
2026-05-07 11:15 26.21443 45.39314 39969 ft 471 kts 307°
2026-05-07 11:16 26.26210 45.34306 39981 ft 471 kts 306°
2026-05-07 11:16 26.30943 45.29326 39965 ft 470 kts 306°
2026-05-07 11:17 26.35708 45.24323 39971 ft 471 kts 306°
2026-05-07 11:17 26.40479 45.19320 39974 ft 471 kts 306°
2026-05-07 11:18 26.45245 45.14316 39973 ft 470 kts 306°
2026-05-07 11:18 26.49999 45.09318 39975 ft 470 kts 306°
2026-05-07 11:19 26.54758 45.04305 39975 ft 470 kts 306°
2026-05-07 11:19 26.59514 44.99293 39996 ft 469 kts 306°
2026-05-07 11:20 26.64224 44.94334 39978 ft 467 kts 305°
2026-05-07 11:20 26.68940 44.89347 39983 ft 467 kts 305°
2026-05-07 11:21 26.73659 44.84352 39986 ft 467 kts 305°
2026-05-07 11:21 26.78380 44.79355 39985 ft 467 kts 305°
2026-05-07 11:22 26.83095 44.74352 39985 ft 467 kts 305°
2026-05-07 11:22 26.87809 44.69333 39985 ft 467 kts 305°
2026-05-07 11:23 26.92516 44.64317 39987 ft 467 kts 305°
2026-05-07 11:23 26.97218 44.59306 39994 ft 466 kts 305°
2026-05-07 11:24 27.01882 44.54330 39992 ft 466 kts 305°
2026-05-07 11:24 27.06568 44.49314 39989 ft 466 kts 305°
2026-05-07 11:25 27.11247 44.44297 39996 ft 466 kts 305°
2026-05-07 11:25 27.15937 44.39265 40001 ft 466 kts 305°
2026-05-07 11:26 27.20626 44.34238 39985 ft 467 kts 305°
2026-05-07 11:26 27.25329 44.29192 40002 ft 467 kts 305°
2026-05-07 11:27 27.30022 44.24149 39993 ft 467 kts 305°
2026-05-07 11:27 27.33926 44.19949 40000 ft 467 kts 305°
2026-05-07 11:28 27.38624 44.14888 39992 ft 468 kts 305°
2026-05-07 11:28 27.43325 44.09821 39986 ft 468 kts 305°
2026-05-07 11:29 27.48027 44.04746 39977 ft 468 kts 305°
2026-05-07 11:29 27.52717 43.99676 39982 ft 468 kts 305°
2026-05-07 11:30 27.57418 43.94588 39980 ft 468 kts 305°
2026-05-07 11:30 27.62114 43.89501 39974 ft 468 kts 305°
2026-05-07 11:31 27.66807 43.84410 39970 ft 468 kts 305°
2026-05-07 11:31 27.71497 43.79315 39969 ft 468 kts 305°
2026-05-07 11:32 27.78499 43.71696 39969 ft 468 kts 305°
2026-05-07 11:33 27.83186 43.66589 39973 ft 468 kts 305°
2026-05-07 11:33 27.87802 43.61414 39979 ft 465 kts 302°
2026-05-07 11:34 27.92183 43.56061 39968 ft 464 kts 301°
2026-05-07 11:34 27.96543 43.50691 39976 ft 464 kts 302°
2026-05-07 11:35 28.00921 43.45365 39979 ft 465 kts 302°
2026-05-07 11:35 28.05366 43.39990 39998 ft 465 kts 302°
2026-05-07 11:36 28.09796 43.34634 39987 ft 466 kts 302°
2026-05-07 11:36 28.14200 43.29300 39980 ft 466 kts 302°
2026-05-07 11:37 28.18622 43.23936 39985 ft 466 kts 302°
2026-05-07 11:37 28.23050 43.18556 39993 ft 466 kts 302°
2026-05-07 11:38 28.27471 43.13177 39994 ft 466 kts 302°
2026-05-07 11:38 28.31889 43.07796 39993 ft 466 kts 302°
2026-05-07 11:39 28.36305 43.02410 39998 ft 466 kts 302°
2026-05-07 11:39 28.40717 42.97022 39999 ft 466 kts 302°
2026-05-07 11:40 28.45120 42.91637 39998 ft 465 kts 302°
2026-05-07 11:40 28.49525 42.86243 40002 ft 466 kts 302°
2026-05-07 11:41 28.53934 42.80838 40003 ft 465 kts 302°
2026-05-07 11:41 28.58334 42.75435 40006 ft 465 kts 302°
2026-05-07 11:42 28.62726 42.70035 40006 ft 465 kts 302°
2026-05-07 11:42 28.67098 42.64655 40012 ft 465 kts 302°
2026-05-07 11:43 28.71491 42.59238 40021 ft 465 kts 302°
2026-05-07 11:43 28.75883 42.53812 40015 ft 466 kts 302°
2026-05-07 11:44 28.80274 42.48382 40015 ft 466 kts 302°
2026-05-07 11:44 28.84669 42.42942 40018 ft 466 kts 302°
2026-05-07 11:45 28.89058 42.37501 40013 ft 466 kts 302°
2026-05-07 11:45 28.93457 42.32039 40030 ft 468 kts 302°
2026-05-07 11:46 28.97862 42.26565 40019 ft 468 kts 302°
2026-05-07 11:46 29.02265 42.21087 40017 ft 468 kts 302°
2026-05-07 11:47 29.06640 42.15640 40029 ft 469 kts 302°
2026-05-07 11:47 29.11047 42.10138 40021 ft 469 kts 302°
2026-05-07 11:48 29.15452 42.04629 40025 ft 469 kts 302°
2026-05-07 11:48 29.19854 41.99118 40025 ft 469 kts 302°
2026-05-07 11:49 29.24262 41.93591 40031 ft 470 kts 302°
2026-05-07 11:49 29.28672 41.88056 40031 ft 470 kts 302°
2026-05-07 11:50 29.33085 41.82511 40033 ft 470 kts 302°
2026-05-07 11:50 29.37466 41.76999 40063 ft 470 kts 302°
2026-05-07 11:51 29.41870 41.71448 40038 ft 471 kts 302°
2026-05-07 11:51 29.46271 41.65894 40038 ft 471 kts 302°
2026-05-07 11:52 29.50679 41.60323 40044 ft 471 kts 302°
2026-05-07 11:52 29.55075 41.54760 40057 ft 471 kts 302°
2026-05-07 11:53 29.59480 41.49177 40045 ft 471 kts 302°
2026-05-07 11:53 29.63880 41.43594 40046 ft 471 kts 302°
2026-05-07 11:54 29.68278 41.38005 40052 ft 471 kts 302°
2026-05-07 11:54 29.72678 41.32414 40054 ft 472 kts 303°
2026-05-07 11:55 29.77479 41.27181 40056 ft 480 kts 308°
2026-05-07 11:55 29.82458 41.22049 40059 ft 481 kts 308°
2026-05-07 11:56 29.87466 41.16928 40061 ft 481 kts 308°
2026-05-07 11:56 29.92468 41.11798 40074 ft 481 kts 309°
2026-05-07 11:57 29.97465 41.06653 40057 ft 482 kts 309°
2026-05-07 11:57 30.02462 41.01498 40060 ft 482 kts 309°
2026-05-07 11:58 30.07463 40.96331 40079 ft 482 kts 309°
2026-05-07 11:58 30.12459 40.91162 40078 ft 482 kts 309°
2026-05-07 11:59 30.17457 40.85984 40061 ft 483 kts 309°
2026-05-07 11:59 30.22453 40.80802 40062 ft 483 kts 309°
2026-05-07 12:00 30.27453 40.75609 40068 ft 483 kts 309°
2026-05-07 12:00 30.32451 40.70410 40077 ft 483 kts 309°
2026-05-07 12:01 30.37450 40.65201 40072 ft 483 kts 309°
2026-05-07 12:01 30.42428 40.60045 40096 ft 484 kts 310°
2026-05-07 12:02 30.47494 40.54871 40072 ft 484 kts 310°
2026-05-07 12:02 30.52548 40.49710 40072 ft 484 kts 310°
2026-05-07 12:03 30.57601 40.44528 40071 ft 484 kts 310°
2026-05-07 12:03 30.62650 40.39335 40069 ft 485 kts 310°
2026-05-07 12:04 30.67696 40.34138 40067 ft 485 kts 310°
2026-05-07 12:04 30.72736 40.28940 40067 ft 485 kts 310°
2026-05-07 12:05 30.77776 40.23733 40086 ft 485 kts 310°
2026-05-07 12:05 30.82817 40.18519 40067 ft 485 kts 310°
2026-05-07 12:06 30.87862 40.13293 40065 ft 485 kts 310°
2026-05-07 12:06 30.92902 40.08065 40064 ft 485 kts 310°
2026-05-07 12:07 30.97908 40.02865 40073 ft 485 kts 310°
2026-05-07 12:07 31.02945 39.97624 40059 ft 485 kts 310°
2026-05-07 12:08 31.07980 39.92377 40058 ft 485 kts 310°
2026-05-07 12:08 31.13016 39.87121 40063 ft 485 kts 310°
2026-05-07 12:09 31.18048 39.81862 40051 ft 485 kts 310°
2026-05-07 12:09 31.23079 39.76597 40052 ft 486 kts 310°
2026-05-07 12:10 31.28107 39.71326 40048 ft 486 kts 310°
2026-05-07 12:10 31.33137 39.66046 40046 ft 486 kts 310°
2026-05-07 12:11 31.38158 39.60767 40040 ft 486 kts 310°
2026-05-07 12:11 31.43154 39.55507 40049 ft 485 kts 310°
2026-05-07 12:12 31.48174 39.50216 40043 ft 486 kts 310°
2026-05-07 12:12 31.53195 39.44911 40041 ft 486 kts 310°
2026-05-07 12:13 31.58210 39.39605 40043 ft 486 kts 310°
2026-05-07 12:13 31.63232 39.34284 40057 ft 486 kts 311°
2026-05-07 12:14 31.68242 39.28969 40038 ft 485 kts 311°
2026-05-07 12:14 31.73248 39.23650 40037 ft 486 kts 311°
2026-05-07 12:15 31.78285 39.18353 40035 ft 488 kts 314°
2026-05-07 12:15 31.83066 39.14686 40048 ft 499 kts 324°
2026-05-07 12:16 31.90253 39.10311 40049 ft 501 kts 327°
2026-05-07 12:16 31.96501 39.06668 40041 ft 501 kts 327°
2026-05-07 12:17 32.01723 39.03611 40040 ft 501 kts 327°
2026-05-07 12:17 32.07960 38.99946 40039 ft 501 kts 327°
2026-05-07 12:18 32.14187 38.96274 40039 ft 500 kts 327°
2026-05-07 12:18 32.20409 38.92596 40037 ft 500 kts 327°
2026-05-07 12:19 32.26633 38.88912 40054 ft 500 kts 327°
2026-05-07 12:19 32.32843 38.85232 40040 ft 498 kts 327°
2026-05-07 12:20 32.38999 38.81579 40036 ft 497 kts 327°
2026-05-07 12:20 32.45170 38.77910 40022 ft 496 kts 327°
2026-05-07 12:21 32.51340 38.74235 40032 ft 496 kts 327°
2026-05-07 12:21 32.57509 38.70556 40033 ft 496 kts 327°
2026-05-07 12:22 32.63685 38.66874 40033 ft 496 kts 327°
2026-05-07 12:22 32.69836 38.63197 40026 ft 493 kts 328°
2026-05-07 12:23 32.75949 38.59536 40024 ft 492 kts 328°
2026-05-07 12:23 32.82060 38.55870 40024 ft 492 kts 328°
2026-05-07 12:24 32.88167 38.52202 40022 ft 492 kts 328°
2026-05-07 12:24 32.94269 38.48532 40016 ft 490 kts 328°
2026-05-07 12:25 33.00361 38.44868 40018 ft 490 kts 328°
2026-05-07 12:25 33.06442 38.41197 40018 ft 490 kts 328°
2026-05-07 12:26 33.12522 38.37516 40026 ft 490 kts 328°
2026-05-07 12:26 33.18554 38.33861 40021 ft 490 kts 328°
2026-05-07 12:27 33.24635 38.30183 40022 ft 489 kts 328°
2026-05-07 12:27 33.30695 38.26489 40020 ft 489 kts 327°
2026-05-07 12:28 33.36757 38.22781 40019 ft 489 kts 327°
2026-05-07 12:28 33.42815 38.19072 40032 ft 489 kts 327°
2026-05-07 12:29 33.48858 38.15378 40015 ft 486 kts 328°
2026-05-07 12:29 33.54879 38.11725 40021 ft 485 kts 328°
2026-05-07 12:30 33.60901 38.08069 40022 ft 485 kts 328°
2026-05-07 12:30 33.66915 38.04408 40020 ft 485 kts 328°
2026-05-07 12:31 33.72923 38.00742 40026 ft 484 kts 328°
2026-05-07 12:31 33.78926 37.97074 40024 ft 484 kts 328°
2026-05-07 12:32 33.84748 37.93098 40024 ft 476 kts 319°
2026-05-07 12:32 33.89386 37.87613 40028 ft 463 kts 302°
2026-05-07 12:33 33.94673 37.77925 40032 ft 461 kts 298°
2026-05-07 12:33 33.98026 37.71406 40045 ft 461 kts 298°
2026-05-07 12:34 34.01415 37.64849 40034 ft 461 kts 298°
2026-05-07 12:34 34.04820 37.58300 40034 ft 461 kts 298°
2026-05-07 12:35 34.08226 37.51751 40035 ft 461 kts 298°
2026-05-07 12:35 34.11627 37.45201 40055 ft 460 kts 298°
2026-05-07 12:36 34.15016 37.38660 40043 ft 459 kts 298°
2026-05-07 12:36 34.18396 37.32124 40030 ft 459 kts 298°
2026-05-07 12:37 34.22020 37.25764 40041 ft 463 kts 307°
2026-05-07 12:37 34.26373 37.19997 40037 ft 465 kts 309°
2026-05-07 12:38 34.30846 37.14338 40044 ft 465 kts 310°
2026-05-07 12:38 34.35332 37.08691 40042 ft 465 kts 309°
2026-05-07 12:39 34.39805 37.03028 40057 ft 465 kts 309°
2026-05-07 12:39 34.44265 36.97355 40056 ft 465 kts 309°
2026-05-07 12:40 34.48718 36.91679 40053 ft 465 kts 309°
2026-05-07 12:40 34.53169 36.85995 40056 ft 464 kts 309°
2026-05-07 12:41 34.57589 36.80343 40057 ft 465 kts 309°
2026-05-07 12:41 34.62038 36.74645 40068 ft 465 kts 309°
2026-05-07 12:42 34.66246 36.68725 40066 ft 460 kts 301°
2026-05-07 12:42 34.69052 36.61830 40066 ft 453 kts 285°
2026-05-07 12:43 34.70159 36.54338 40075 ft 450 kts 275°
2026-05-07 12:43 34.70708 36.46757 40077 ft 451 kts 273°
2026-05-07 12:44 34.71188 36.39162 40082 ft 451 kts 274°
2026-05-07 12:44 34.71685 36.31621 40080 ft 451 kts 274°
2026-05-07 12:45 34.72203 36.24027 40094 ft 451 kts 274°
2026-05-07 12:45 34.72722 36.16438 40085 ft 451 kts 274°
2026-05-07 12:46 34.73237 36.08834 40091 ft 451 kts 274°
2026-05-07 12:46 34.73746 36.01237 40090 ft 451 kts 274°
2026-05-07 12:47 34.74250 35.93628 40098 ft 451 kts 274°
2026-05-07 12:47 34.74750 35.86026 40099 ft 451 kts 274°
2026-05-07 12:48 34.75245 35.78415 40094 ft 451 kts 274°
2026-05-07 12:48 34.75731 35.70856 40098 ft 451 kts 274°
2026-05-07 12:49 34.76217 35.63244 40097 ft 452 kts 274°
2026-05-07 12:49 34.76698 35.55631 40079 ft 452 kts 274°
2026-05-07 12:50 34.77174 35.48008 40105 ft 452 kts 274°
2026-05-07 12:50 34.77647 35.40377 40101 ft 452 kts 274°
2026-05-07 12:51 34.78114 35.32741 40101 ft 453 kts 274°
2026-05-07 12:51 34.78577 35.25106 40104 ft 453 kts 274°
2026-05-07 12:52 34.79035 35.17466 40101 ft 453 kts 274°
2026-05-07 12:52 34.79490 35.09819 40100 ft 453 kts 274°
2026-05-07 12:53 34.79939 35.02177 40105 ft 453 kts 274°
2026-05-07 12:53 34.80382 34.94537 40107 ft 453 kts 274°
2026-05-07 12:54 34.80822 34.86892 40102 ft 453 kts 274°
2026-05-07 12:54 34.81256 34.79245 40103 ft 453 kts 274°
2026-05-07 12:55 34.81686 34.71601 40108 ft 453 kts 274°
2026-05-07 12:55 34.82112 34.63945 40105 ft 454 kts 274°
2026-05-07 12:56 34.82530 34.56339 40101 ft 454 kts 274°
2026-05-07 12:56 34.82946 34.48674 40108 ft 454 kts 274°
2026-05-07 12:57 34.83356 34.41030 40111 ft 454 kts 274°
2026-05-07 12:57 34.83763 34.33351 40112 ft 454 kts 274°
2026-05-07 12:58 34.84166 34.25677 40106 ft 454 kts 274°
2026-05-07 12:58 34.84563 34.17998 40110 ft 455 kts 274°
2026-05-07 12:59 34.84957 34.10302 40109 ft 455 kts 274°
2026-05-07 12:59 34.85346 34.02603 40114 ft 456 kts 274°
2026-05-07 13:00 34.85730 33.94906 40112 ft 455 kts 274°
2026-05-07 13:00 34.86109 33.87207 40108 ft 456 kts 274°
2026-05-07 13:01 34.86484 33.79494 40106 ft 456 kts 274°
2026-05-07 13:01 34.86854 33.71785 40133 ft 456 kts 274°
2026-05-07 13:02 34.87343 33.64133 40132 ft 456 kts 280°
2026-05-07 13:02 34.88996 33.56700 40128 ft 455 kts 289°
2026-05-07 13:03 34.90719 33.50650 40129 ft 455 kts 290°
2026-05-07 13:03 34.92863 33.43395 40121 ft 455 kts 290°
2026-05-07 13:04 34.95007 33.36133 40106 ft 455 kts 290°
2026-05-07 13:04 34.97128 33.28864 40105 ft 455 kts 290°
2026-05-07 13:05 34.99233 33.21585 40102 ft 455 kts 289°
2026-05-07 13:05 35.01330 33.14299 40105 ft 455 kts 290°
2026-05-07 13:06 35.03433 33.07005 40106 ft 455 kts 290°
2026-05-07 13:06 35.05525 32.99716 40107 ft 455 kts 290°
2026-05-07 13:07 35.07612 32.92429 40107 ft 455 kts 290°
2026-05-07 13:07 35.09617 32.85104 40105 ft 455 kts 289°
2026-05-07 13:08 35.11560 32.77736 40111 ft 456 kts 289°
2026-05-07 13:08 35.13509 32.70369 40112 ft 456 kts 289°
2026-05-07 13:09 35.15466 32.63005 40114 ft 456 kts 289°
2026-05-07 13:09 35.17415 32.55681 40114 ft 456 kts 289°
2026-05-07 13:10 35.19369 32.48316 40117 ft 456 kts 289°
2026-05-07 13:10 35.21320 32.40939 40118 ft 456 kts 289°
2026-05-07 13:11 35.23265 32.33563 40122 ft 456 kts 289°
2026-05-07 13:11 35.25204 32.26186 40125 ft 456 kts 289°
2026-05-07 13:12 35.27140 32.18801 40126 ft 455 kts 289°
2026-05-07 13:12 35.29070 32.11420 40126 ft 455 kts 289°
2026-05-07 13:13 35.31001 32.04026 40122 ft 455 kts 289°
2026-05-07 13:13 35.32941 31.96723 40127 ft 454 kts 289°
2026-05-07 13:14 35.34902 31.89369 40128 ft 454 kts 289°
2026-05-07 13:14 35.36855 31.82011 40127 ft 454 kts 289°
2026-05-07 13:15 35.38799 31.74649 40122 ft 454 kts 289°
2026-05-07 13:15 35.40736 31.67292 40128 ft 453 kts 289°
2026-05-07 13:16 35.42668 31.59933 40128 ft 453 kts 289°
2026-05-07 13:16 35.44596 31.52572 40133 ft 453 kts 289°
2026-05-07 13:17 35.46518 31.45209 40132 ft 453 kts 289°
2026-05-07 13:17 35.48435 31.37850 40131 ft 453 kts 289°
2026-05-07 13:18 35.50346 31.30489 40126 ft 453 kts 289°
2026-05-07 13:18 35.52252 31.23128 40125 ft 453 kts 289°
2026-05-07 13:19 35.54151 31.15771 40133 ft 451 kts 289°
2026-05-07 13:19 35.56033 31.08463 40136 ft 451 kts 289°
2026-05-07 13:20 35.57921 31.01111 40134 ft 451 kts 289°
2026-05-07 13:20 35.59805 30.93753 40129 ft 451 kts 289°
2026-05-07 13:21 35.61680 30.86405 40132 ft 449 kts 289°
2026-05-07 13:21 35.63544 30.79083 40133 ft 449 kts 289°
2026-05-07 13:22 35.65395 30.71791 40138 ft 449 kts 289°
2026-05-07 13:22 35.67253 30.64452 40141 ft 449 kts 289°
2026-05-07 13:23 35.69105 30.57114 40131 ft 449 kts 289°
2026-05-07 13:23 35.70953 30.49773 40142 ft 449 kts 289°
2026-05-07 13:24 35.72796 30.42430 40137 ft 449 kts 289°
2026-05-07 13:24 35.74633 30.35084 40136 ft 448 kts 289°
2026-05-07 13:25 35.76461 30.27757 40135 ft 448 kts 289°
2026-05-07 13:25 35.78285 30.20428 40150 ft 448 kts 289°
2026-05-07 13:26 35.80104 30.13096 40136 ft 447 kts 289°
2026-05-07 13:26 35.81918 30.05763 40130 ft 447 kts 289°
2026-05-07 13:27 35.83726 29.98442 40136 ft 446 kts 289°
2026-05-07 13:27 35.85664 29.91196 40126 ft 445 kts 291°
2026-05-07 13:28 35.87671 29.83962 40139 ft 445 kts 291°
2026-05-07 13:28 35.89650 29.76738 40128 ft 443 kts 291°
2026-05-07 13:29 35.91600 29.69530 40145 ft 442 kts 290°
2026-05-07 13:29 35.93535 29.62336 40145 ft 442 kts 290°
2026-05-07 13:30 35.95469 29.55127 40146 ft 442 kts 290°
2026-05-07 13:30 35.97403 29.47948 40145 ft 439 kts 290°
2026-05-07 13:31 35.99323 29.40800 40146 ft 438 kts 290°
2026-05-07 13:31 36.01239 29.33654 40143 ft 437 kts 290°
2026-05-07 13:32 36.03134 29.26566 40144 ft 437 kts 290°
2026-05-07 13:32 36.05035 29.19437 40140 ft 436 kts 290°
2026-05-07 13:33 36.06924 29.12333 40140 ft 435 kts 290°
2026-05-07 13:33 36.08807 29.05234 40141 ft 435 kts 290°
2026-05-07 13:34 36.11625 28.94569 40130 ft 435 kts 290°
2026-05-07 13:35 36.13499 28.87458 40131 ft 435 kts 290°
2026-05-07 13:35 36.15368 28.80340 40130 ft 435 kts 290°
2026-05-07 13:36 36.17235 28.73215 40129 ft 435 kts 290°
2026-05-07 13:36 36.19096 28.66089 40114 ft 435 kts 290°
2026-05-07 13:37 36.20956 28.58951 40127 ft 436 kts 290°
2026-05-07 13:37 36.22805 28.51836 40118 ft 436 kts 290°
2026-05-07 13:38 36.24671 28.44632 40122 ft 437 kts 290°
2026-05-07 13:38 36.26504 28.37508 40116 ft 437 kts 289°
2026-05-07 13:39 36.28350 28.30313 40116 ft 437 kts 289°
2026-05-07 13:39 36.30185 28.23144 40116 ft 437 kts 289°
2026-05-07 13:40 36.32023 28.15946 40115 ft 437 kts 289°
2026-05-07 13:40 36.33904 28.08778 40128 ft 436 kts 293°
2026-05-07 13:41 36.36267 28.01857 40132 ft 435 kts 295°
2026-05-07 13:41 36.38714 27.95015 40128 ft 434 kts 295°
2026-05-07 13:42 36.41177 27.88179 40126 ft 434 kts 295°
2026-05-07 13:42 36.43615 27.81380 40125 ft 434 kts 295°
2026-05-07 13:43 36.46073 27.74494 40125 ft 434 kts 295°
2026-05-07 13:43 36.48502 27.67684 40124 ft 434 kts 295°
2026-05-07 13:44 36.50952 27.60777 40123 ft 434 kts 295°
2026-05-07 13:44 36.53367 27.53950 40130 ft 434 kts 295°
2026-05-07 13:45 36.55794 27.47082 40126 ft 434 kts 295°
2026-05-07 13:45 36.58214 27.40218 40129 ft 432 kts 295°
2026-05-07 13:46 36.60625 27.33369 40136 ft 432 kts 295°
2026-05-07 13:46 36.63031 27.26517 40135 ft 432 kts 295°
2026-05-07 13:47 36.65431 27.19664 40137 ft 432 kts 295°
2026-05-07 13:47 36.67828 27.12809 40156 ft 430 kts 295°
2026-05-07 13:48 36.70210 27.05989 40155 ft 428 kts 295°
2026-05-07 13:48 36.72568 26.99188 40153 ft 428 kts 295°
2026-05-07 13:49 36.74913 26.92414 40156 ft 428 kts 295°
2026-05-07 13:49 36.77269 26.85599 40149 ft 428 kts 295°
2026-05-07 13:50 36.79616 26.78799 40153 ft 425 kts 295°
2026-05-07 13:50 36.81948 26.72024 40150 ft 425 kts 295°
2026-05-07 13:51 36.83885 26.66390 40147 ft 425 kts 295°
2026-05-07 13:51 36.86213 26.59611 40146 ft 425 kts 294°
2026-05-07 13:52 36.88535 26.52835 40144 ft 424 kts 294°
2026-05-07 13:52 36.90848 26.46075 40143 ft 422 kts 294°
2026-05-07 13:53 36.93143 26.39316 40141 ft 422 kts 294°
2026-05-07 13:53 36.95429 26.32565 40143 ft 422 kts 294°
2026-05-07 13:54 36.97717 26.25804 40141 ft 422 kts 294°
2026-05-07 13:54 37.00006 26.19062 40142 ft 419 kts 294°
2026-05-07 13:55 37.02283 26.12351 40140 ft 418 kts 294°
2026-05-07 13:55 37.04559 26.05631 40139 ft 421 kts 294°
2026-05-07 13:56 37.06843 25.98867 40142 ft 422 kts 294°
2026-05-07 13:56 37.09104 25.92157 40142 ft 421 kts 294°
2026-05-07 13:56 37.10237 25.88789 39956 ft 418 kts 294°
2026-05-07 13:57 37.11360 25.85444 39711 ft 416 kts 294°
2026-05-07 13:57 37.12478 25.82111 39508 ft 414 kts 294°
2026-05-07 13:57 37.13589 25.78795 39312 ft 411 kts 294°
2026-05-07 13:57 37.14691 25.75503 39180 ft 408 kts 294°
2026-05-07 13:58 37.15783 25.72243 39064 ft 404 kts 294°
2026-05-07 13:58 37.16866 25.69012 38943 ft 400 kts 294°
2026-05-07 13:58 37.17940 25.65806 38779 ft 398 kts 294°
2026-05-07 13:58 37.19013 25.62609 38540 ft 396 kts 294°
2026-05-07 13:59 37.20085 25.59440 38363 ft 394 kts 294°
2026-05-07 13:59 37.21166 25.56294 38214 ft 391 kts 294°
2026-05-07 13:59 37.22254 25.53182 38052 ft 388 kts 294°
2026-05-07 13:59 37.23356 25.50098 37836 ft 387 kts 295°